Skip Page Navigation
NASA JPL Caltech
NASA Logo - Jet Propulsion Laboratory + View the NASA Portal
+ Near-Earth Object (NEO) Program
Search JPL
JPL Home Earth Solar System Stars & Galaxies Technology
JPL Solar System Dynamics
BODIES ORBITS EPHEMERIDES TOOLS PHYSICAL DATA DISCOVERY FAQ SITE MAP
JPL Small-Body Database Browser
Search: [ help ]  
3034 Climenhaga (A917 SE)
Classification: Main-belt Asteroid          SPK-ID: 2003034
Ephemeris | Orbit Diagram | Orbital Elements | Physical Parameters | Discovery Circumstances ]

[ hide orbit diagram ]
Orbit Diagram
Note: Make sure you have Java enabled on your browser to see the applet. This applet is provided as a 3D orbit visualization tool. The applet was implemented using 2-body methods, and hence should not be used for determining accurate long-term trajectories (over several years or decades) or planetary encounter circumstances. For accurate long-term ephemerides, please instead use our Horizons system.
Orbit Viewer

Additional Notes: the orbits shown in the applet are color coded. The planets are white lines, and the asteroid/comet is a blue line. The bright white line indicates the portion of the orbit that is above the ecliptic plane, and the darker portion is below the ecliptic plane. Likewise for the asteroid/comet orbit, the light blue indicates the portion above the ecliptic plane, and the dark blue the portion below the ecliptic plane.

Orbit Viewer applet originally written and kindly provided by Osamu Ajiki (AstroArts), and further modified by Ron Baalke (JPL).


Orbital Elements at Epoch 2456400.5 (2013-Apr-18.0) TDB
Reference: MPO234858 (heliocentric ecliptic J2000)
 Element Value Uncertainty (1-sigma)   Units 
e 0.2095006 n/a  
a 2.3241738 n/a AU
q 1.8372580 n/a AU
i 4.92196 n/a deg
node 10.75268 n/a deg
peri 313.40258 n/a deg
M 12.41308 n/a deg
tp 2456355.8749859
(2013-Mar-04.37498590)
n/a JED
period 1294.1997526
3.54
n/a
n/a
d
yr
n 0.27816417 n/a deg/d
Q 2.8110896 n/a AU
  Orbit Determination Parameters
   # obs. used (total)      1152  
   first obs. used      1917-??-??  
   last obs. used      2012-07-19  
   # oppositions      25  
   planetary ephem.      DE403  
   condition code      0  
   fit RMS      0.57  
   data source      MPC:mpn  
   producer      MPCLINUX  

Additional Information
 T_jup = 3.541 

Ephemeris | Orbit Diagram | Orbital Elements | Physical Parameters | Discovery Circumstances ]

Physical Parameter Table
Parameter Symbol Value Units Sigma Reference Notes
absolute magnitude H 12.3 mag n/a PDS3 (MPC 17267)  
rotation period rot_per 2.7376 h n/a Asteroid Lightcurve DataBase (Rev. 2013-May-01) Published Reference List:
[Oey, J. (2011) http://minorplanet.haoeydental.com.au]

3034 Climenhaga (A917 SE)          Discovered 1917-Sep-24 by Wolf, M. at Heidelberg (024)
Reference: DISCOVERY.DBLast Updated: 2003-08-29

Alternate Designations
 A917 SE = 1949 UE1 = 1952 KZ = 1970 OC = 1974 VN2 = 1974 XE = 1979 BD1 = 1981 XD 
Ephemeris | Orbit Diagram | Orbital Elements | Physical Parameters | Discovery Circumstances ]
ABOUT SSD CREDITS/AWARDS PRIVACY/COPYRIGHT GLOSSARY LINKS
FirstGov 2013-Jun-19 12:19 UT
(server date/time)  
NASA Home Page
Site Manager:   Donald K. Yeomans
Webmaster  Alan B. Chamberlin